,,,PA_Meas_PMT16A,,PR_Meas_QMR101_102,,RH_Meas_QMH101,,SR_Meas_QMS101,,TA_Meas_QMH101,,GenWind,,GenWind,
date,time,status,PA,status,PR,status,RH,status,SR,status,TA,status,DirAvg,status,SpdAvg,
2010-06-27, 00:00:04,VALID,1009.92,VALID,0,VALID,96.4582,VALID,0,VALID,26.4836,VALID,177,VALID,0.434375,
2010-06-27, 00:01:04,VALID,1009.91,VALID,0,VALID,96.4429,VALID,0,VALID,26.4426,VALID,140,VALID,0.673047,
2010-06-27, 00:02:04,VALID,1009.88,VALID,0,VALID,96.4429,VALID,0,VALID,26.4621,VALID,161,VALID,0.730078,
2010-06-27, 00:03:04,VALID,1009.87,VALID,0,VALID,96.4582,VALID,0,VALID,26.4211,VALID,178,VALID,0.394141,
2010-06-27, 00:04:04,VALID,1009.88,VALID,0,VALID,96.5192,VALID,0.105969,VALID,26.4211,VALID,177,VALID,0.613281,
2010-06-27, 00:05:04,VALID,1009.85,VALID,0,VALID,96.5725,VALID,0.105969,VALID,26.4016,VALID,176,VALID,0.319922,
2010-06-27, 00:06:04,VALID,1009.86,VALID,0,VALID,96.6488,VALID,0.105969,VALID,26.3821,VALID,220,VALID,1.11367,
2010-06-27, 00:07:04,VALID,1009.83,VALID,0,VALID,96.6183,VALID,0.105969,VALID,26.3821,VALID,172,VALID,0.680859,
2010-06-27, 00:08:04,VALID,1009.79,VALID,0,VALID,96.6869,VALID,0.105969,VALID,26.4016,VALID,172,VALID,0.164063,
2010-06-27, 00:09:04,VALID,1009.79,VALID,0,VALID,96.6717,VALID,0.105969,VALID,26.3821,VALID,155,VALID,0.430469,
2010-06-27, 00:10:04,VALID,1009.78,VALID,0,VALID,96.6946,VALID,0.105969,VALID,26.3821,VALID,155,VALID,0,
2010-06-27, 00:11:04,VALID,1009.74,VALID,0,VALID,96.7708,VALID,0.105969,VALID,26.3431,VALID,163,VALID,0.709375,
2010-06-27, 00:12:04,VALID,1009.71,VALID,0,VALID,96.7479,VALID,0.105969,VALID,26.3236,VALID,174,VALID,0.322266,
2010-06-27, 00:13:04,VALID,1009.68,VALID,0,VALID,96.8166,VALID,0.105969,VALID,26.3041,VALID,174,VALID,0.294141,
2010-06-27, 00:14:04,VALID,1009.65,VALID,0,VALID,96.8699,VALID,0.105969,VALID,26.2651,VALID,173,VALID,0.651563,
2010-06-27, 00:15:04,VALID,1009.63,VALID,0,VALID,97.0225,VALID,0.105969,VALID,26.2456,VALID,191,VALID,0.821875,
2010-06-27, 00:16:04,VALID,1009.62,VALID,0,VALID,97.114,VALID,0.105969,VALID,26.2651,VALID,171,VALID,1.00273,
2010-06-27, 00:17:04,VALID,1009.57,VALID,0,VALID,97.1826,VALID,0.105969,VALID,26.2261,VALID,174,VALID,0.507813,
2010-06-27, 00:18:04,VALID,1009.54,VALID,0,VALID,97.2894,VALID,0.105969,VALID,26.1871,VALID,164,VALID,0.875391,
2010-06-27, 00:19:04,VALID,1009.5,VALID,0,VALID,97.3351,VALID,0.105969,VALID,26.1656,VALID,186,VALID,0.514063,
2010-06-27, 00:20:04,VALID,1009.49,VALID,0,VALID,97.5181,VALID,0.105969,VALID,26.1676,VALID,147,VALID,0.70625,
2010-06-27, 00:21:04,VALID,1009.49,VALID,0,VALID,97.541,VALID,0.105969,VALID,26.1481,VALID,172,VALID,0.733984,
2010-06-27, 00:22:04,VALID,1009.48,VALID,0,VALID,97.5715,VALID,0.105969,VALID,26.1481,VALID,173,VALID,0.947266,
2010-06-27, 00:23:04,VALID,1009.48,VALID,0,VALID,97.6325,VALID,0.105969,VALID,26.1481,VALID,167,VALID,0.499609,
2010-06-27, 00:24:04,VALID,1009.46,VALID,0,VALID,97.6859,VALID,0.105969,VALID,26.1286,VALID,199,VALID,0.945703,
2010-06-27, 00:25:04,VALID,1009.47,VALID,0,VALID,97.7393,VALID,0.105969,VALID,26.1481,VALID,186,VALID,0.862109,
2010-06-27, 00:26:04,VALID,1009.44,VALID,0,VALID,97.6325,VALID,0.105969,VALID,26.1676,VALID,155,VALID,0.384375,
2010-06-27, 00:27:04,VALID,1009.42,VALID,0,VALID,97.6554,VALID,0.105969,VALID,26.1481,VALID,195,VALID,0.553516,
2010-06-27, 00:28:04,VALID,1009.42,VALID,0,VALID,97.6325,VALID,0.105969,VALID,26.1286,VALID,190,VALID,0.548828,
2010-06-27, 00:29:04,VALID,1009.38,VALID,0,VALID,97.6401,VALID,0.105969,VALID,26.1481,VALID,195,VALID,0.95,
2010-06-27, 00:30:04,VALID,1009.37,VALID,0,VALID,97.6096,VALID,0.105969,VALID,26.1286,VALID,177,VALID,0.442187,
2010-06-27, 00:31:04,VALID,1009.36,VALID,0,VALID,97.5105,VALID,0.105969,VALID,26.1071,VALID,197,VALID,0.876562,
2010-06-27, 00:32:04,VALID,1009.35,VALID,0,VALID,97.3809,VALID,0.105969,VALID,26.1676,VALID,161,VALID,0.910937,
2010-06-27, 00:33:04,VALID,1009.32,VALID,0,VALID,97.1826,VALID,0,VALID,26.1891,VALID,165,VALID,1.00469,
2010-06-27, 00:34:04,VALID,1009.33,VALID,0,VALID,97.1445,VALID,0,VALID,26.1911,VALID,204,VALID,0.512109,
2010-06-27, 00:35:04,VALID,1009.32,VALID,0,VALID,97.1902,VALID,0,VALID,26.1891,VALID,181,VALID,0.861719,
2010-06-27, 00:36:04,VALID,1009.29,VALID,0,VALID,97.0835,VALID,0,VALID,26.1891,VALID,158,VALID,0.735547,
2010-06-27, 00:37:04,VALID,1009.3,VALID,0,VALID,96.9843,VALID,0,VALID,26.2086,VALID,160,VALID,1.16289,
2010-06-27, 00:38:04,VALID,1009.3,VALID,0,VALID,96.7861,VALID,0,VALID,26.2281,VALID,190,VALID,0.694922,
2010-06-27, 00:39:04,VALID,1009.31,VALID,0,VALID,96.8471,VALID,0,VALID,26.2281,VALID,187,VALID,0.624609,
2010-06-27, 00:40:04,VALID,1009.28,VALID,0,VALID,96.8852,VALID,0,VALID,26.2086,VALID,191,VALID,0.584766,
2010-06-27, 00:41:04,VALID,1009.26,VALID,0,VALID,96.8547,VALID,0,VALID,26.2086,VALID,177,VALID,1.09375,
2010-06-27, 00:42:04,VALID,1009.28,VALID,0,VALID,96.9081,VALID,0,VALID,26.1891,VALID,206,VALID,1.14531,
2010-06-27, 00:43:04,VALID,1009.24,VALID,0,VALID,96.9081,VALID,0,VALID,26.1891,VALID,209,VALID,1.09219,
2010-06-27, 00:44:04,VALID,1009.24,VALID,0,VALID,96.8013,VALID,0,VALID,26.2086,VALID,218,VALID,1.28711,
2010-06-27, 00:45:04,VALID,1009.19,VALID,0,VALID,96.7784,VALID,0,VALID,26.2281,VALID,217,VALID,0.86875,
2010-06-27, 00:46:04,VALID,1009.17,VALID,0,VALID,96.7327,VALID,0,VALID,26.2281,VALID,187,VALID,0.299219,
2010-06-27, 00:47:04,VALID,1009.15,VALID,0,VALID,96.6869,VALID,0,VALID,26.2281,VALID,177,VALID,1.02969,
2010-06-27, 00:48:04,VALID,1009.13,VALID,0,VALID,96.6488,VALID,0,VALID,26.2476,VALID,191,VALID,1.09609,
2010-06-27, 00:49:04,VALID,1009.13,VALID,0,VALID,96.5115,VALID,0,VALID,26.2671,VALID,193,VALID,0.939062,
2010-06-27, 00:50:04,VALID,1009.13,VALID,0,VALID,96.5039,VALID,0,VALID,26.2476,VALID,207,VALID,0.535156,
2010-06-27, 00:51:04,VALID,1009.12,VALID,0,VALID,96.5115,VALID,0,VALID,26.2281,VALID,187,VALID,0.792188,
2010-06-27, 00:52:04,VALID,1009.16,VALID,0,VALID,96.5725,VALID,0,VALID,26.2476,VALID,192,VALID,1.06328,
2010-06-27, 00:53:04,VALID,1009.12,VALID,0,VALID,96.5192,VALID,0,VALID,26.2066,VALID,168,VALID,0.596484,
2010-06-27, 00:54:04,VALID,1009.14,VALID,0,VALID,96.542,VALID,0,VALID,26.2086,VALID,195,VALID,0.526172,
2010-06-27, 00:55:05,VALID,1009.12,VALID,0,VALID,96.6259,VALID,0,VALID,26.1891,VALID,196,VALID,1.24023,
2010-06-27, 00:56:05,VALID,1009.13,VALID,0,VALID,96.5573,VALID,0,VALID,26.2086,VALID,183,VALID,1.20469,
2010-06-27, 00:57:05,VALID,1009.13,VALID,0,VALID,96.4124,VALID,0,VALID,26.2281,VALID,156,VALID,0.528906,
2010-06-27, 00:58:05,VALID,1009.14,VALID,0,VALID,96.5039,VALID,0,VALID,26.1891,VALID,165,VALID,0.948828,
2010-06-27, 00:59:05,VALID,1009.13,VALID,0,VALID,96.5725,VALID,0,VALID,26.2086,VALID,175,VALID,0.494531,
2010-06-27, 01:00:05,VALID,1009.14,VALID,0,VALID,96.5649,VALID,0,VALID,26.1871,VALID,168,VALID,0.868359,
2010-06-27, 01:01:05,VALID,1009.11,VALID,0,VALID,96.5192,VALID,0,VALID,26.1676,VALID,163,VALID,0.466406,
2010-06-27, 01:02:05,VALID,1009.09,VALID,0,VALID,96.5649,VALID,0,VALID,26.1891,VALID,163,VALID,0,
2010-06-27, 01:03:05,VALID,1009.06,VALID,0,VALID,96.6793,VALID,0,VALID,26.1696,VALID,163,VALID,0.0496094,
2010-06-27, 01:04:05,VALID,1009.04,VALID,0,VALID,96.8013,VALID,0,VALID,26.1501,VALID,163,VALID,0.0113281,
2010-06-27, 01:05:05,VALID,1009.02,VALID,0,VALID,96.8623,VALID,0,VALID,26.1306,VALID,144,VALID,0.185547,
2010-06-27, 01:06:05,VALID,1008.99,VALID,0,VALID,96.9691,VALID,0,VALID,26.0916,VALID,64,VALID,0.482812,
2010-06-27, 01:07:05,VALID,1008.99,VALID,0,VALID,97.3809,VALID,0,VALID,26.0116,VALID,61,VALID,0.498047,
2010-06-27, 01:08:05,VALID,1008.99,VALID,0,VALID,97.6706,VALID,0,VALID,25.9356,VALID,56,VALID,0.655469,
2010-06-27, 01:09:05,VALID,1009.01,VALID,0,VALID,98.1816,VALID,0,VALID,25.8576,VALID,46,VALID,0.548828,
2010-06-27, 01:10:05,VALID,1009.06,VALID,0,VALID,98.5247,VALID,0,VALID,25.7601,VALID,45,VALID,0.641797,
2010-06-27, 01:11:05,VALID,1009.09,VALID,0,VALID,98.8984,VALID,0,VALID,25.6821,VALID,44,VALID,0.717578,
2010-06-27, 01:12:05,VALID,1009.12,VALID,0,VALID,99.2111,VALID,0,VALID,25.5846,VALID,44,VALID,0.279297,
2010-06-27, 01:13:05,VALID,1009.1,VALID,0,VALID,99.5847,VALID,0,VALID,25.5261,VALID,44,VALID,0.110156,
2010-06-27, 01:14:05,VALID,1009.13,VALID,0,VALID,99.8059,VALID,0,VALID,25.4891,VALID,44,VALID,0,
2010-06-27, 01:15:05,VALID,1009.12,VALID,0,VALID,100.119,VALID,0,VALID,25.4677,VALID,44,VALID,0.373047,
2010-06-27, 01:16:05,VALID,1009.1,VALID,0,VALID,100.294,VALID,0,VALID,25.4482,VALID,44,VALID,0.632031,
2010-06-27, 01:17:05,VALID,1009.11,VALID,0,VALID,100.37,VALID,0,VALID,25.4287,VALID,44,VALID,0.247656,
2010-06-27, 01:18:05,VALID,1009.11,VALID,0,VALID,100.477,VALID,0,VALID,25.4092,VALID,44,VALID,0.337109,
2010-06-27, 01:19:05,VALID,1009.07,VALID,0,VALID,100.53,VALID,0,VALID,25.4092,VALID,44,VALID,0.476563,
2010-06-27, 01:20:05,VALID,1009.06,VALID,0,VALID,100.637,VALID,0,VALID,25.4092,VALID,44,VALID,0.413672,
2010-06-27, 01:21:05,VALID,1009.03,VALID,0,VALID,100.629,VALID,0,VALID,25.4092,VALID,49,VALID,0.451172,
2010-06-27, 01:22:05,VALID,1009.03,VALID,0,VALID,100.607,VALID,0,VALID,25.4287,VALID,49,VALID,0.255078,
2010-06-27, 01:23:05,VALID,1009.02,VALID,0,VALID,100.599,VALID,0,VALID,25.4092,VALID,49,VALID,0.169922,
2010-06-27, 01:24:05,VALID,1009.01,VALID,0,VALID,100.652,VALID,0,VALID,25.3897,VALID,49,VALID,0,
2010-06-27, 01:25:05,VALID,1008.97,VALID,0,VALID,100.668,VALID,0,VALID,25.3897,VALID,49,VALID,0,
2010-06-27, 01:26:05,VALID,1008.95,VALID,0,VALID,100.706,VALID,0,VALID,25.3683,VALID,49,VALID,0,
2010-06-27, 01:27:05,VALID,1008.96,VALID,0,VALID,100.782,VALID,0,VALID,25.3897,VALID,49,VALID,0,
2010-06-27, 01:28:05,VALID,1008.93,VALID,0,VALID,100.858,VALID,0,VALID,25.3897,VALID,49,VALID,0,
2010-06-27, 01:29:05,VALID,1008.92,VALID,0,VALID,100.919,VALID,0.105969,VALID,25.3683,VALID,49,VALID,0,
2010-06-27, 01:30:05,VALID,1008.89,VALID,0,VALID,101.011,VALID,0,VALID,25.3702,VALID,49,VALID,0,
2010-06-27, 01:31:05,VALID,1008.87,VALID,0,VALID,101.064,VALID,0,VALID,25.3897,VALID,49,VALID,0,
2010-06-27, 01:32:05,VALID,1008.84,VALID,0,VALID,101.117,VALID,0,VALID,25.4092,VALID,49,VALID,0,
2010-06-27, 01:33:05,VALID,1008.8,VALID,0,VALID,101.056,VALID,0,VALID,25.4267,VALID,50,VALID,0.0101562,
2010-06-27, 01:34:05,VALID,1008.77,VALID,0,VALID,100.934,VALID,0,VALID,25.4677,VALID,128,VALID,0.396875,
2010-06-27, 01:35:05,VALID,1008.74,VALID,0,VALID,100.759,VALID,0,VALID,25.5066,VALID,128,VALID,0.219531,
2010-06-27, 01:36:05,VALID,1008.73,VALID,0,VALID,100.538,VALID,0,VALID,25.5456,VALID,172,VALID,0.7,
2010-06-27, 01:37:05,VALID,1008.72,VALID,0,VALID,100.286,VALID,0,VALID,25.5827,VALID,170,VALID,0.497656,
2010-06-27, 01:38:05,VALID,1008.69,VALID,0,VALID,100.027,VALID,0,VALID,25.6236,VALID,165,VALID,0.305078,
2010-06-27, 01:39:05,VALID,1008.69,VALID,0,VALID,99.783,VALID,0,VALID,25.6217,VALID,165,VALID,0.209375,
2010-06-27, 01:40:05,VALID,1008.67,VALID,0,VALID,99.7144,VALID,0,VALID,25.6431,VALID,165,VALID,0.206641,
2010-06-27, 01:41:05,VALID,1008.66,VALID,0,VALID,99.5695,VALID,0,VALID,25.6626,VALID,165,VALID,0.105469,
2010-06-27, 01:42:05,VALID,1008.67,VALID,0,VALID,99.5008,VALID,0,VALID,25.6626,VALID,165,VALID,0.2875,
2010-06-27, 01:43:05,VALID,1008.64,VALID,0,VALID,99.4398,VALID,0,VALID,25.6821,VALID,166,VALID,0.385156,
2010-06-27, 01:44:05,VALID,1008.62,VALID,0,VALID,99.4017,VALID,0,VALID,25.7016,VALID,179,VALID,0.420312,
2010-06-27, 01:45:05,VALID,1008.63,VALID,0,VALID,99.2644,VALID,0,VALID,25.7016,VALID,179,VALID,0.335938,
2010-06-27, 01:46:05,VALID,1008.64,VALID,0,VALID,99.2263,VALID,0,VALID,25.7211,VALID,179,VALID,0.0886719,
2010-06-27, 01:47:05,VALID,1008.61,VALID,0,VALID,99.1958,VALID,0,VALID,25.7016,VALID,179,VALID,0.257422,
2010-06-27, 01:48:05,VALID,1008.6,VALID,0,VALID,99.2339,VALID,0,VALID,25.7016,VALID,186,VALID,0.241016,
2010-06-27, 01:49:05,VALID,1008.62,VALID,0,VALID,99.2568,VALID,0.105969,VALID,25.7016,VALID,186,VALID,0.211328,
2010-06-27, 01:50:05,VALID,1008.61,VALID,0,VALID,99.2187,VALID,0.105969,VALID,25.6821,VALID,185,VALID,0.289063,
2010-06-27, 01:51:05,VALID,1008.61,VALID,0,VALID,99.2492,VALID,0,VALID,25.6607,VALID,185,VALID,0.28125,
2010-06-27, 01:52:05,VALID,1008.59,VALID,0,VALID,99.2339,VALID,0,VALID,25.6607,VALID,153,VALID,0.170703,
2010-06-27, 01:53:05,VALID,1008.59,VALID,0,VALID,99.2187,VALID,0.105969,VALID,25.6412,VALID,153,VALID,0,
2010-06-27, 01:54:05,VALID,1008.55,VALID,0,VALID,99.2416,VALID,0.105969,VALID,25.6412,VALID,153,VALID,0,
2010-06-27, 01:55:05,VALID,1008.57,VALID,0,VALID,99.2721,VALID,0.105969,VALID,25.6412,VALID,153,VALID,0,
2010-06-27, 01:56:05,VALID,1008.57,VALID,0,VALID,99.3712,VALID,0,VALID,25.6626,VALID,153,VALID,0,
2010-06-27, 01:57:05,VALID,1008.58,VALID,0,VALID,99.4703,VALID,0,VALID,25.6626,VALID,153,VALID,0,
2010-06-27, 01:58:05,VALID,1008.57,VALID,0,VALID,99.5466,VALID,0.105969,VALID,25.6626,VALID,153,VALID,0,
2010-06-27, 01:59:05,VALID,1008.58,VALID,0,VALID,99.5542,VALID,0.105969,VALID,25.6412,VALID,153,VALID,0,
2010-06-27, 02:00:05,VALID,1008.6,VALID,0,VALID,99.6076,VALID,0.105969,VALID,25.6412,VALID,153,VALID,0,
2010-06-27, 02:01:05,VALID,1008.59,VALID,0,VALID,99.6,VALID,0,VALID,25.6821,VALID,152,VALID,0,
2010-06-27, 02:02:05,VALID,1008.6,VALID,0,VALID,99.539,VALID,0,VALID,25.6821,VALID,152,VALID,0,
2010-06-27, 02:03:05,VALID,1008.58,VALID,0,VALID,99.478,VALID,0,VALID,25.6607,VALID,152,VALID,0.45625,
2010-06-27, 02:04:05,VALID,1008.57,VALID,0,VALID,99.4169,VALID,0,VALID,25.7016,VALID,152,VALID,0.0492188,
2010-06-27, 02:05:05,VALID,1008.55,VALID,0,VALID,99.3331,VALID,0,VALID,25.7211,VALID,152,VALID,0.107031,
2010-06-27, 02:06:05,VALID,1008.56,VALID,0,VALID,99.2492,VALID,0,VALID,25.7211,VALID,152,VALID,0.180859,
2010-06-27, 02:07:05,VALID,1008.51,VALID,0,VALID,99.1958,VALID,0,VALID,25.7211,VALID,152,VALID,0,
2010-06-27, 02:08:05,VALID,1008.52,VALID,0,VALID,99.15,VALID,0,VALID,25.7211,VALID,152,VALID,0,
2010-06-27, 02:09:05,VALID,1008.49,VALID,0,VALID,99.2034,VALID,0.105969,VALID,25.7016,VALID,152,VALID,0,
2010-06-27, 02:10:05,VALID,1008.5,VALID,0,VALID,99.2492,VALID,0,VALID,25.6997,VALID,152,VALID,0,
2010-06-27, 02:11:05,VALID,1008.47,VALID,0,VALID,99.3178,VALID,0,VALID,25.6802,VALID,152,VALID,0,
2010-06-27, 02:12:05,VALID,1008.48,VALID,0,VALID,99.3026,VALID,0,VALID,25.6997,VALID,152,VALID,0,
2010-06-27, 02:13:05,VALID,1008.45,VALID,0,VALID,99.3178,VALID,0.105969,VALID,25.6802,VALID,152,VALID,0,
2010-06-27, 02:14:05,VALID,1008.42,VALID,0,VALID,99.3026,VALID,0,VALID,25.7016,VALID,152,VALID,0.00195313,
2010-06-27, 02:15:05,VALID,1008.41,VALID,0,VALID,99.2797,VALID,0,VALID,25.6821,VALID,152,VALID,0,
2010-06-27, 02:16:05,VALID,1008.39,VALID,0,VALID,99.3864,VALID,0.105969,VALID,25.6431,VALID,152,VALID,0,
2010-06-27, 02:17:05,VALID,1008.37,VALID,0,VALID,99.5161,VALID,0,VALID,25.6236,VALID,152,VALID,0,
2010-06-27, 02:18:05,VALID,1008.4,VALID,0,VALID,99.6381,VALID,0,VALID,25.5651,VALID,152,VALID,0,
2010-06-27, 02:19:05,VALID,1008.37,VALID,0,VALID,99.9431,VALID,0,VALID,25.5456,VALID,152,VALID,0,
2010-06-27, 02:20:05,VALID,1008.36,VALID,0,VALID,100.202,VALID,0,VALID,25.5066,VALID,116,VALID,0.227344,
2010-06-27, 02:21:05,VALID,1008.36,VALID,0,VALID,100.286,VALID,0,VALID,25.5261,VALID,116,VALID,0,
2010-06-27, 02:22:05,VALID,1008.32,VALID,0,VALID,100.263,VALID,0,VALID,25.5066,VALID,116,VALID,0,
2010-06-27, 02:23:05,VALID,1008.35,VALID,0,VALID,100.241,VALID,0,VALID,25.4677,VALID,116,VALID,0,
2010-06-27, 02:24:05,VALID,1008.33,VALID,0,VALID,100.347,VALID,0,VALID,25.4482,VALID,116,VALID,0,
2010-06-27, 02:25:05,VALID,1008.32,VALID,0,VALID,100.393,VALID,0.105969,VALID,25.4482,VALID,116,VALID,0,
2010-06-27, 02:26:05,VALID,1008.29,VALID,0,VALID,100.393,VALID,0,VALID,25.4482,VALID,116,VALID,0,
2010-06-27, 02:27:05,VALID,1008.29,VALID,0,VALID,100.363,VALID,0,VALID,25.4092,VALID,116,VALID,0,
2010-06-27, 02:28:05,VALID,1008.31,VALID,0,VALID,100.431,VALID,0,VALID,25.3702,VALID,116,VALID,0,
2010-06-27, 02:29:05,VALID,1008.31,VALID,0,VALID,100.584,VALID,0,VALID,25.3507,VALID,116,VALID,0,
2010-06-27, 02:30:05,VALID,1008.31,VALID,0,VALID,100.683,VALID,0.105969,VALID,25.3117,VALID,116,VALID,0,
2010-06-27, 02:31:05,VALID,1008.32,VALID,0,VALID,100.835,VALID,0,VALID,25.2708,VALID,116,VALID,0,
2010-06-27, 02:32:05,VALID,1008.32,VALID,0,VALID,101.011,VALID,0,VALID,25.2727,VALID,116,VALID,0,
2010-06-27, 02:33:05,VALID,1008.3,VALID,0,VALID,101.156,VALID,0,VALID,25.2318,VALID,40,VALID,0,
2010-06-27, 02:34:05,VALID,1008.33,VALID,0,VALID,101.278,VALID,0,VALID,25.1947,VALID,40,VALID,0,
2010-06-27, 02:35:05,VALID,1008.35,VALID,0,VALID,101.445,VALID,0,VALID,25.1752,VALID,40,VALID,0,
2010-06-27, 02:36:05,VALID,1008.38,VALID,0,VALID,101.476,VALID,0,VALID,25.1557,VALID,39,VALID,0,
2010-06-27, 02:37:05,VALID,1008.38,VALID,0,VALID,101.545,VALID,0.105969,VALID,25.1167,VALID,39,VALID,0,
2010-06-27, 02:38:05,VALID,1008.4,VALID,0,VALID,101.628,VALID,0,VALID,25.0759,VALID,39,VALID,0,
2010-06-27, 02:39:05,VALID,1008.42,VALID,0,VALID,101.712,VALID,0.105969,VALID,25.0973,VALID,39,VALID,0,
2010-06-27, 02:40:05,VALID,1008.44,VALID,0,VALID,101.811,VALID,0.105969,VALID,25.0778,VALID,39,VALID,0,
2010-06-27, 02:41:05,VALID,1008.44,VALID,0,VALID,101.827,VALID,0,VALID,25.0778,VALID,39,VALID,0,
2010-06-27, 02:42:05,VALID,1008.44,VALID,0,VALID,101.888,VALID,0,VALID,25.0369,VALID,39,VALID,0,
2010-06-27, 02:43:05,VALID,1008.41,VALID,0,VALID,101.88,VALID,0.105969,VALID,25.0193,VALID,39,VALID,0.302344,
2010-06-27, 02:44:05,VALID,1008.44,VALID,0,VALID,101.888,VALID,0,VALID,24.9784,VALID,38,VALID,0.264844,
2010-06-27, 02:45:05,VALID,1008.4,VALID,0,VALID,101.933,VALID,0,VALID,24.9998,VALID,38,VALID,0,
2010-06-27, 02:46:05,VALID,1008.42,VALID,0,VALID,101.972,VALID,0.105969,VALID,24.9589,VALID,38,VALID,0,
2010-06-27, 02:47:05,VALID,1008.39,VALID,0,VALID,102.002,VALID,0,VALID,24.9394,VALID,38,VALID,0,
2010-06-27, 02:48:05,VALID,1008.4,VALID,0,VALID,102.033,VALID,0,VALID,24.9199,VALID,38,VALID,0,
2010-06-27, 02:49:05,VALID,1008.39,VALID,0,VALID,102.04,VALID,0,VALID,24.9004,VALID,38,VALID,0,
2010-06-27, 02:50:05,VALID,1008.37,VALID,0,VALID,102.033,VALID,0,VALID,24.8633,VALID,38,VALID,0,
2010-06-27, 02:51:05,VALID,1008.37,VALID,0,VALID,102.033,VALID,0,VALID,24.8225,VALID,38,VALID,0,
2010-06-27, 02:52:05,VALID,1008.34,VALID,0,VALID,102.048,VALID,0,VALID,24.8438,VALID,38,VALID,0,
2010-06-27, 02:53:05,VALID,1008.34,VALID,0,VALID,102.086,VALID,0,VALID,24.8244,VALID,38,VALID,0,
2010-06-27, 02:54:05,VALID,1008.36,VALID,0,VALID,102.155,VALID,0,VALID,24.803,VALID,38,VALID,0,
2010-06-27, 02:55:05,VALID,1008.33,VALID,0,VALID,102.2,VALID,0.105969,VALID,24.803,VALID,38,VALID,0,
2010-06-27, 02:56:05,VALID,1008.33,VALID,0,VALID,102.238,VALID,0,VALID,24.8049,VALID,38,VALID,0,
2010-06-27, 02:57:05,VALID,1008.35,VALID,0,VALID,102.284,VALID,0,VALID,24.7835,VALID,38,VALID,0,
2010-06-27, 02:58:05,VALID,1008.39,VALID,0,VALID,102.315,VALID,0,VALID,24.8049,VALID,38,VALID,0,
2010-06-27, 02:59:05,VALID,1008.35,VALID,0,VALID,102.338,VALID,0,VALID,24.7854,VALID,38,VALID,0,
2010-06-27, 03:00:05,VALID,1008.35,VALID,0,VALID,102.36,VALID,0,VALID,24.7659,VALID,38,VALID,0,
2010-06-27, 03:01:05,VALID,1008.35,VALID,0,VALID,102.383,VALID,0,VALID,24.7464,VALID,38,VALID,0,
2010-06-27, 03:02:05,VALID,1008.37,VALID,0,VALID,102.368,VALID,0,VALID,24.7464,VALID,38,VALID,0,
2010-06-27, 03:03:05,VALID,1008.36,VALID,0,VALID,102.383,VALID,0,VALID,24.7464,VALID,38,VALID,0,
2010-06-27, 03:04:05,VALID,1008.38,VALID,0,VALID,102.406,VALID,0,VALID,24.7445,VALID,38,VALID,0,
2010-06-27, 03:05:05,VALID,1008.37,VALID,0,VALID,102.444,VALID,0,VALID,24.7464,VALID,38,VALID,0,
2010-06-27, 03:06:05,VALID,1008.4,VALID,0,VALID,102.444,VALID,0,VALID,24.7074,VALID,38,VALID,0,
2010-06-27, 03:07:05,VALID,1008.38,VALID,0,VALID,102.444,VALID,0,VALID,24.686,VALID,38,VALID,0,
2010-06-27, 03:08:05,VALID,1008.38,VALID,0,VALID,102.444,VALID,0.105969,VALID,24.6666,VALID,38,VALID,0,
2010-06-27, 03:09:05,VALID,1008.38,VALID,0,VALID,102.429,VALID,0,VALID,24.6684,VALID,38,VALID,0,
2010-06-27, 03:10:05,VALID,1008.41,VALID,0,VALID,102.437,VALID,0,VALID,24.6471,VALID,38,VALID,0,
2010-06-27, 03:11:05,VALID,1008.41,VALID,0,VALID,102.444,VALID,0,VALID,24.6489,VALID,38,VALID,0,
2010-06-27, 03:12:05,VALID,1008.4,VALID,0,VALID,102.452,VALID,0,VALID,24.6081,VALID,38,VALID,0,
2010-06-27, 03:13:05,VALID,1008.41,VALID,0,VALID,102.429,VALID,0.105969,VALID,24.6081,VALID,38,VALID,0,
2010-06-27, 03:14:05,VALID,1008.42,VALID,0,VALID,102.452,VALID,0,VALID,24.6081,VALID,38,VALID,0,
2010-06-27, 03:15:05,VALID,1008.43,VALID,0,VALID,102.452,VALID,0.105969,VALID,24.6081,VALID,38,VALID,0,
2010-06-27, 03:16:05,VALID,1008.42,VALID,0,VALID,102.46,VALID,0.105969,VALID,24.6099,VALID,38,VALID,0,
2010-06-27, 03:17:05,VALID,1008.42,VALID,0,VALID,102.467,VALID,0.105969,VALID,24.6099,VALID,38,VALID,0,
2010-06-27, 03:18:05,VALID,1008.42,VALID,0,VALID,102.482,VALID,0,VALID,24.5886,VALID,38,VALID,0,
2010-06-27, 03:19:05,VALID,1008.43,VALID,0,VALID,102.475,VALID,0,VALID,24.6294,VALID,38,VALID,0,
2010-06-27, 03:20:05,VALID,1008.42,VALID,0,VALID,102.475,VALID,0,VALID,24.6684,VALID,38,VALID,0,
2010-06-27, 03:21:05,VALID,1008.43,VALID,0,VALID,102.498,VALID,0.105969,VALID,24.6471,VALID,38,VALID,0,
2010-06-27, 03:22:05,VALID,1008.38,VALID,0,VALID,102.505,VALID,0,VALID,24.6471,VALID,38,VALID,0,
2010-06-27, 03:23:05,VALID,1008.39,VALID,0,VALID,102.513,VALID,0.105969,VALID,24.6684,VALID,38,VALID,0,
2010-06-27, 03:24:05,VALID,1008.35,VALID,0,VALID,102.536,VALID,0,VALID,24.6471,VALID,38,VALID,0,
2010-06-27, 03:25:05,VALID,1008.39,VALID,0,VALID,102.498,VALID,0,VALID,24.6879,VALID,38,VALID,0,
2010-06-27, 03:26:05,VALID,1008.34,VALID,0,VALID,102.46,VALID,0,VALID,24.725,VALID,43,VALID,0,
2010-06-27, 03:27:05,VALID,1008.33,VALID,0,VALID,102.475,VALID,0.105969,VALID,24.764,VALID,43,VALID,0,
2010-06-27, 03:28:05,VALID,1008.3,VALID,0,VALID,102.505,VALID,0.105969,VALID,24.764,VALID,43,VALID,0,
2010-06-27, 03:29:05,VALID,1008.28,VALID,0,VALID,102.505,VALID,0.105969,VALID,24.8049,VALID,321,VALID,0.340234,
2010-06-27, 03:30:05,VALID,1008.29,VALID,0,VALID,102.49,VALID,0.105969,VALID,24.8225,VALID,306,VALID,0.207422,
2010-06-27, 03:31:05,VALID,1008.27,VALID,0,VALID,102.505,VALID,0,VALID,24.8828,VALID,306,VALID,0,
2010-06-27, 03:32:05,VALID,1008.29,VALID,0,VALID,102.49,VALID,0,VALID,24.9023,VALID,306,VALID,0.0394531,
2010-06-27, 03:33:05,VALID,1008.3,VALID,0,VALID,102.498,VALID,0,VALID,24.9023,VALID,306,VALID,0,
2010-06-27, 03:34:05,VALID,1008.31,VALID,0,VALID,102.505,VALID,0,VALID,24.9218,VALID,306,VALID,0.288672,
2010-06-27, 03:35:05,VALID,1008.32,VALID,0,VALID,102.505,VALID,0,VALID,24.9413,VALID,306,VALID,0,
2010-06-27, 03:36:05,VALID,1008.31,VALID,0,VALID,102.498,VALID,0,VALID,24.9413,VALID,306,VALID,0.0363281,
2010-06-27, 03:37:05,VALID,1008.32,VALID,0,VALID,102.475,VALID,0,VALID,24.9413,VALID,306,VALID,0.00429688,
2010-06-27, 03:38:05,VALID,1008.33,VALID,0,VALID,102.46,VALID,0,VALID,24.9608,VALID,306,VALID,0.310156,
2010-06-27, 03:39:05,VALID,1008.34,VALID,0,VALID,102.46,VALID,0,VALID,24.9589,VALID,239,VALID,0.422656,
2010-06-27, 03:40:05,VALID,1008.33,VALID,0,VALID,102.399,VALID,0,VALID,24.9608,VALID,239,VALID,0,
2010-06-27, 03:41:05,VALID,1008.31,VALID,0,VALID,102.368,VALID,0,VALID,24.9803,VALID,239,VALID,0.214844,
2010-06-27, 03:42:05,VALID,1008.3,VALID,0,VALID,102.315,VALID,0,VALID,24.9998,VALID,183,VALID,0.467187,
2010-06-27, 03:43:05,VALID,1008.3,VALID,0,VALID,102.254,VALID,0,VALID,24.9998,VALID,183,VALID,0.337891,
2010-06-27, 03:44:04,VALID,1008.31,VALID,0,VALID,102.132,VALID,0,VALID,24.9998,VALID,183,VALID,0.541016,
2010-06-27, 03:45:04,VALID,1008.3,VALID,0,VALID,102.071,VALID,0,VALID,25.0193,VALID,196,VALID,0.359766,
2010-06-27, 03:46:04,VALID,1008.3,VALID,0,VALID,101.987,VALID,0,VALID,25.0193,VALID,193,VALID,0.242969,
2010-06-27, 03:47:04,VALID,1008.3,VALID,0,VALID,101.926,VALID,0,VALID,24.9979,VALID,183,VALID,0.278906,